Location: ??????
(38.3184°N, 23.6932°E)
Time: 19:58:09
(UTC+00:00)

Cosmos 1727 Rocket - Pass Details

Date: 04 June 2022
Orbit: 961 x 996 km, 82.9° (Epoch: 25 June)

Event Time Altitude Azimuth Distance (km) Brightness Sun altitude
Rises 01:30:04 0° 142° (SE) 3,683 6.9 -15.2°
Reaches altitude 10° 01:33:19 10° 125° (SE) 2,745 6.5 -14.7°
Maximum altitude 01:37:33 19° 83° (E) 2,160 6.5 -14.1°
Drops below altitude 10° 01:41:48 10° 40° (NE) 2,766 7.8 -13.5°
Sets 01:45:04 0° 24° (NNE) 3,722 8.4 -13.1°
